Temp
-7 -7 -7 -7 -7 -7 -7 -7 -7 -7 -7 -7 -7 -7 -7 -7 -7 -7 -7 -7 -7 -7 -7 -6 -6 -7 -7 -7 -7 -8 -7 -7 -7 -7 -7 -7 -7 -8 -8 -8 -8 -8 -8 -7 -7
-7 -7 -7 -7 -7 -7 -7 -8 -8 -8 -7 -7 -7 -7 -7 -7 -7 -7 -7 -7 -7 -7 -7 -7 -7 -7 -7 -7 -7 -8 -8 -8 -8 -8 -8 -8 -8 -8 -8 -8 -8 -8 -8 -8 -8
-8 -8 -7 -7 -7 -7 -7 -7 -7 -8 -8 -7 -7 -7 -7 -7 -8 -8 -7 -7 -7 -7 -7 -7 -7 -8 -8 -8 -8 -8 -8 -8 -8 -8 -8 -8 -8 -8 -8 -8 -8 -8 -8 -8 -8
-8 -8 -8 -7 -8 -8 -7 -7 -7 -8 -8 -8 -8 -8 -8 -8 -8 -8 -8 -7 -7 -7 -7 -7 -7 -8 -8 -8 -8 -8 -8 -8 -8 -8 -8 -8 -8 -8 -8 -8 -8 -8 -8 -8 -8
-8 -8 -8 -8 -8 -8 -8 -8 -8 -8 -8 -8 -8 -8 -8 -8 -8 -8 -8 -7 -7 -7 -8 -8 -8 -8 -8 -8 -8 -8 -8 -8 -8 -8 -8 -8 -8 -8 -8 -8 -8 -8 -8 -8 -8
-8 -8 -8 -8 -8 -8 -8 -8 -8 -8 -8 -8 -8 -8 -8 -8 -8 -8 -8 -8 -8 -8 -8 -8 -8 -8 -8 -8 -8 -8 -8 -8 -8 -8 -8 -8 -8 -8 -9 -9 -9 -9 -9 -9 -9
-9 -8 -8 -8 -8 -8 -8 -8 -8 -8 -9 -9 -8 -8 -8 -8 -8 -8 -8 -8 -8 -8 -8 -8 -8 -8 -8 -8 -8 -9 -8 -8 -8 -8 -8 -8 -8 -8 -8 -8 -9 -9 -9 -9 -9
-9 -9 -9 -9 -9 -8 -8 -8 -8 -9 -9 -9 -9 -9 -8 -8 -8 -8 -8 -8 -8 -8 -8 -8 -8 -8 -8 -9 -9 -9 -9 -9 -9 -9 -9 -9 -9 -9 -9 -9 -9 -9 -9 -9 -9
-9 -9 -9 -9 -9 -9 -9 -9 -9 -9 -9 -9 -9 -9 -9 -8 -8 -8 -8 -8 -8 -8 -8 -8 -8 -8 -8 -9 -9 -9 -9 -9 -9 -9 -9 -9 -9 -10 -10 -10 -10 -10 -11 -11 -11
-9 -9 -9 -9 -9 -9 -9 -9 -9 -9 -9 -9 -9 -9 -9 -8 -8 -8 -8 -8 -8 -8 -8 -8 -8 -8 -8 -9 -9 -9 -9 -10 -10 -10 -10 -10 -10 -10 -10 -10 -11 -11 -11 -11 -11
-9 -9 -9 -9 -9 -9 -9 -9 -9 -9 -9 -9 -9 -9 -9 -9 -8 -8 -8 -8 -8 -8 -8 -8 -9 -9 -9 -9 -9 -9 -10 -10 -11 -11 -11 -11 -11 -11 -11 -12 -12 -12 -12 -12 -12
-9 -9 -9 -9 -9 -9 -9 -9 -9 -9 -9 -9 -9 -9 -9 -9 -9 -9 -9 -9 -9 -8 -8 -9 -9 -9 -10 -10 -10 -11 -11 -12 -12 -12 -12 -12 -12 -13 -12 -13 -13 -13 -13 -13 -13
-10 -10 -9 -9 -10 -10 -9 -10 -10 -9 -9 -9 -9 -9 -9 -9 -9 -9 -9 -9 -9 -9 -9 -9 -10 -11 -11 -11 -12 -12 -12 -12 -12 -12 -12 -12 -13 -13 -13 -13 -13 -13 -13 -13 -13
-10 -10 -10 -10 -10 -10 -10 -10 -10 -10 -9 -9 -9 -9 -9 -9 -9 -9 -9 -9 -9 -9 -10 -11 -11 -11 -12 -12 -12 -13 -12 -13 -13 -12 -13 -13 -13 -14 -14 -14 -14 -14 -14 -14 -14
-10 -10 -10 -10 -10 -10 -10 -10 -10 -10 -10 -9 -9 -9 -9 -9 -10 -9 -9 -9 -9 -9 -10 -11 -11 -12 -12 -13 -13 -13 -13 -13 -13 -13 -13 -14 -14 -14 -14 -14 -14 -14 -14 -14 -14
-11 -11 -11 -11 -11 -11 -10 -10 -10 -10 -10 -9 -10 -10 -10 -10 -10 -10 -10 -10 -9 -10 -11 -11 -12 -12 -13 -13 -13 -13 -13 -13 -14 -14 -14 -14 -14 -14 -15 -15 -15 -15 -15 -15 -15
-11 -11 -11 -11 -11 -11 -11 -11 -10 -10 -10 -10 -10 -10 -10 -10 -10 -10 -10 -10 -10 -10 -11 -12 -12 -12 -13 -13 -13 -13 -13 -13 -14 -14 -14 -15 -15 -15 -15 -15 -15 -15 -15 -15 -15
-11 -11 -11 -11 -11 -11 -11 -11 -11 -10 -10 -10 -10 -10 -10 -10 -10 -10 -10 -11 -11 -11 -11 -12 -12 -13 -13 -14 -14 -14 -14 -14 -14 -15 -15 -15 -16 -16 -15 -15 -15 -15 -15 -15 -15
-12 -12 -12 -11 -11 -11 -11 -11 -11 -11 -11 -10 -10 -11 -11 -10 -11 -11 -11 -11 -11 -11 -12 -12 -12 -13 -13 -13 -14 -14 -14 -14 -14 -15 -15 -15 -16 -15 -15 -15 -15 -15 -15 -15 -15
-12 -12 -12 -12 -12 -11 -11 -11 -11 -11 -11 -11 -11 -11 -11 -11 -11 -11 -11 -11 -11 -12 -12 -13 -13 -13 -13 -14 -14 -14 -14 -14 -14 -15 -15 -15 -16 -15 -16 -16 -15 -15 -15 -15 -15
-13 -12 -12 -12 -12 -12 -11 -11 -11 -11 -11 -11 -11 -11 -11 -11 -11 -11 -11 -12 -12 -12 -13 -13 -13 -13 -14 -14 -14 -14 -14 -15 -15 -15 -15 -15 -16 -15 -15 -15 -15 -15 -15 -15 -15
-13 -13 -13 -13 -13 -13 -12 -12 -12 -12 -12 -11 -12 -12 -12 -12 -12 -12 -12 -12 -13 -13 -13 -13 -14 -14 -14 -14 -14 -14 -15 -15 -15 -15 -15 -16 -16 -16 -15 -15 -15 -15 -15 -15 -15
-13 -13 -13 -13 -13 -13 -13 -12 -12 -12 -12 -12 -12 -13 -12 -12 -12 -13 -13 -13 -13 -13 -13 -14 -14 -14 -14 -14 -14 -15 -15 -15 -15 -15 -16 -16 -16 -17 -15 -16 -16 -15 -15 -15 -15
-13 -14 -13 -13 -13 -13 -13 -13 -13 -12 -12 -12 -13 -13 -13 -13 -13 -13 -13 -13 -14 -14 -14 -14 -14 -14 -14 -15 -15 -15 -15 -15 -15 -15 -16 -16 -16 -16 -16 -16 -15 -15 -15 -15 -15
-13 -13 -13 -13 -13 -14 -14 -13 -13 -13 -13 -13 -13 -13 -13 -13 -13 -13 -13 -13 -14 -14 -14 -14 -14 -14 -14 -14 -15 -15 -16 -16 -16 -16 -16 -16 -16 -16 -16 -16 -15 -15 -15 -15 -15
-14 -14 -13 -13 -13 -13 -13 -13 -13 -13 -13 -13 -13 -14 -14 -14 -14 -14 -13 -14 -14 -14 -15 -15 -15 -15 -15 -15 -15 -16 -16 -16 -16 -17 -16 -16 -16 -16 -16 -16 -16 -15 -15 -15 -15
-14 -14 -14 -14 -14 -14 -14 -14 -14 -14 -14 -13 -13 -14 -14 -14 -14 -14 -14 -14 -15 -15 -15 -15 -15 -15 -15 -15 -15 -16 -16 -16 -16 -17 -16 -16 -17 -17 -16 -16 -16 -15 -15 -15 -15
Height
5864 5863 5863 5862 5862 5861 5860 5859 5859 5858 5858 5858 5858 5858 5858 5857 5857 5857 5857 5858 5857 5857 5857 5857 5857 5857 5857 5858 5859 5859 5860 5860 5860 5860 5861 5862 5864 5865 5864 5865 5866 5867 5868 5869 5871
5863 5863 5862 5861 5860 5859 5859 5858 5857 5857 5857 5857 5856 5856 5856 5855 5855 5855 5855 5854 5854 5854 5854 5854 5854 5854 5854 5854 5855 5855 5855 5855 5857 5857 5858 5858 5858 5858 5859 5859 5860 5860 5859 5861 5862
5862 5861 5861 5860 5859 5858 5857 5857 5856 5855 5855 5854 5854 5854 5853 5853 5853 5852 5852 5852 5851 5851 5850 5850 5850 5850 5850 5850 5850 5850 5851 5851 5852 5852 5852 5852 5852 5852 5853 5852 5853 5854 5854 5856 5856
5861 5860 5859 5858 5857 5856 5855 5855 5855 5854 5853 5852 5852 5852 5851 5851 5852 5851 5850 5849 5849 5848 5847 5847 5847 5847 5847 5847 5846 5846 5846 5846 5846 5847 5847 5847 5848 5846 5845 5848 5848 5849 5848 5847 5848
5860 5859 5858 5857 5856 5855 5854 5853 5852 5852 5851 5850 5849 5849 5849 5849 5849 5848 5847 5847 5845 5844 5844 5843 5843 5844 5844 5844 5843 5842 5842 5842 5842 5842 5842 5843 5842 5841 5841 5842 5842 5841 5840 5840 5839
5858 5857 5856 5855 5854 5853 5852 5851 5850 5849 5849 5848 5847 5847 5846 5847 5846 5845 5844 5843 5842 5841 5840 5840 5840 5840 5840 5840 5840 5839 5838 5837 5837 5837 5837 5836 5836 5835 5835 5833 5833 5833 5832 5831 5830
5856 5855 5854 5853 5852 5851 5849 5848 5848 5847 5846 5845 5845 5844 5844 5845 5844 5843 5842 5840 5839 5838 5837 5836 5836 5836 5836 5836 5835 5834 5833 5831 5831 5830 5830 5830 5829 5828 5827 5826 5824 5824 5824 5823 5822
5854 5852 5851 5850 5849 5848 5846 5846 5845 5844 5844 5843 5843 5843 5842 5841 5841 5840 5839 5838 5836 5835 5834 5833 5832 5831 5831 5831 5830 5829 5828 5825 5824 5823 5823 5823 5820 5820 5819 5819 5817 5816 5814 5813 5813
5852 5850 5848 5847 5846 5845 5844 5843 5843 5842 5841 5841 5841 5840 5840 5839 5839 5837 5835 5834 5833 5832 5830 5829 5828 5827 5826 5825 5824 5822 5820 5819 5816 5815 5815 5815 5812 5810 5809 5808 5806 5805 5805 5803 5802
5848 5848 5846 5845 5844 5843 5842 5841 5840 5840 5839 5839 5839 5840 5838 5837 5835 5834 5832 5830 5829 5828 5826 5824 5822 5820 5819 5817 5816 5815 5813 5811 5808 5807 5804 5803 5802 5800 5800 5799 5798 5796 5795 5793 5792
5844 5845 5843 5842 5840 5840 5840 5838 5839 5838 5837 5836 5836 5836 5835 5834 5832 5830 5828 5827 5825 5823 5821 5819 5817 5813 5811 5810 5809 5806 5805 5804 5801 5798 5797 5794 5793 5791 5790 5788 5786 5785 5784 5783 5782
5839 5839 5840 5838 5837 5836 5836 5835 5835 5834 5834 5833 5833 5832 5832 5830 5828 5826 5825 5823 5820 5817 5815 5813 5810 5807 5804 5802 5800 5798 5797 5796 5794 5791 5789 5787 5787 5784 5782 5780 5778 5776 5775 5774 5772
5836 5835 5835 5834 5833 5833 5833 5832 5831 5830 5830 5830 5830 5830 5829 5827 5824 5822 5821 5818 5815 5812 5808 5806 5804 5802 5799 5798 5795 5793 5792 5790 5789 5786 5782 5780 5780 5777 5775 5773 5770 5768 5766 5764 5763
5831 5830 5830 5830 5829 5828 5828 5828 5828 5826 5826 5827 5827 5826 5826 5823 5821 5819 5816 5814 5810 5807 5804 5802 5799 5797 5795 5793 5792 5789 5787 5785 5781 5780 5778 5775 5774 5772 5768 5766 5764 5761 5757 5755 5752
5827 5825 5824 5824 5824 5822 5823 5823 5823 5823 5822 5823 5822 5822 5820 5820 5817 5815 5812 5808 5805 5802 5801 5799 5796 5794 5791 5789 5788 5786 5783 5780 5777 5774 5772 5770 5768 5765 5763 5760 5757 5754 5751 5748 5745
5822 5821 5819 5818 5818 5818 5817 5818 5819 5820 5817 5818 5817 5817 5816 5814 5813 5810 5808 5805 5801 5798 5797 5796 5794 5791 5787 5786 5784 5782 5779 5776 5773 5770 5767 5765 5763 5760 5757 5754 5751 5747 5744 5741 5739
5816 5816 5815 5814 5814 5813 5813 5813 5814 5813 5814 5814 5813 5811 5811 5809 5808 5806 5804 5800 5797 5794 5791 5791 5789 5787 5785 5782 5780 5778 5775 5772 5769 5765 5763 5760 5758 5754 5751 5749 5746 5742 5739 5736 5731
5810 5810 5810 5809 5808 5808 5808 5808 5808 5808 5808 5808 5808 5806 5805 5804 5803 5801 5799 5796 5794 5792 5789 5787 5786 5784 5781 5780 5777 5774 5771 5768 5764 5762 5759 5756 5753 5749 5745 5743 5740 5738 5734 5730 5725
5802 5803 5804 5803 5803 5802 5803 5803 5802 5802 5802 5802 5801 5801 5800 5799 5799 5797 5795 5792 5789 5788 5787 5784 5783 5781 5779 5776 5774 5770 5768 5765 5760 5758 5756 5754 5750 5744 5741 5739 5736 5733 5729 5723 5716
5795 5795 5797 5796 5795 5796 5797 5796 5796 5795 5795 5795 5795 5795 5794 5793 5794 5791 5789 5787 5785 5784 5782 5781 5779 5776 5774 5772 5770 5767 5764 5760 5757 5754 5751 5750 5745 5740 5737 5735 5733 5728 5724 5718 5712
5787 5787 5789 5789 5788 5789 5789 5789 5789 5788 5789 5789 5788 5789 5788 5787 5787 5786 5784 5783 5780 5779 5778 5777 5775 5773 5771 5768 5765 5762 5759 5756 5753 5750 5746 5744 5741 5736 5733 5730 5726 5723 5718 5712 5706
5777 5778 5780 5780 5781 5781 5782 5782 5782 5781 5781 5781 5781 5781 5781 5780 5780 5779 5778 5777 5776 5774 5774 5772 5771 5769 5767 5764 5761 5757 5754 5751 5748 5745 5741 5738 5736 5731 5727 5724 5720 5715 5710 5705 5700
5766 5768 5770 5771 5771 5772 5773 5774 5774 5774 5774 5774 5773 5773 5774 5773 5774 5773 5772 5772 5771 5769 5769 5767 5765 5765 5762 5760 5757 5753 5749 5745 5743 5740 5737 5734 5731 5725 5722 5718 5714 5709 5705 5699 5694
5758 5758 5760 5761 5762 5763 5764 5764 5766 5766 5766 5766 5766 5766 5765 5766 5766 5766 5766 5766 5765 5763 5763 5762 5760 5759 5757 5754 5752 5748 5744 5741 5738 5735 5732 5729 5727 5721 5718 5714 5710 5705 5700 5695 5688
5746 5748 5748 5750 5752 5753 5754 5756 5756 5757 5758 5757 5758 5757 5758 5758 5758 5759 5759 5759 5758 5757 5757 5757 5755 5753 5750 5748 5746 5744 5740 5736 5732 5730 5728 5725 5720 5716 5712 5708 5702 5697 5692 5688 5681
5735 5737 5739 5739 5741 5744 5745 5746 5747 5747 5750 5750 5750 5750 5750 5750 5752 5753 5752 5752 5751 5750 5748 5748 5748 5745 5745 5740 5739 5739 5735 5732 5728 5725 5722 5719 5716 5710 5706 5701 5696 5691 5686 5681 5675
5722 5725 5728 5730 5732 5733 5735 5736 5738 5737 5739 5741 5742 5742 5742 5741 5743 5745 5745 5744 5744 5743 5742 5742 5740 5739 5740 5735 5732 5732 5730 5728 5724 5720 5717 5714 5710 5706 5702 5697 5691 5686 5681 5674 5669
Wind_Speed
3 3 4 5 5 5 4 4 4 5 5 5 5 6 7 7 8 8 8 8 10 11 12 12 14 16 18 19 19 20 21 23 24 26 26 27 26 27 29 30 30 30 30 29 27
5 5 5 6 6 6 6 5 5 6 7 7 7 7 7 7 7 8 7 8 10 12 14 14 15 16 18 19 21 23 26 26 26 26 26 26 27 29 29 29 30 31 32 30 30
6 6 7 6 6 6 4 4 5 6 7 7 8 8 7 6 6 7 8 9 11 13 14 14 15 15 16 17 18 22 26 28 29 30 30 29 31 31 31 34 33 33 34 33 33
5 5 6 7 6 4 3 4 6 7 8 9 9 9 9 8 9 8 9 11 12 12 14 14 13 12 13 13 16 19 22 26 29 32 34 35 35 36 38 36 36 35 37 37 36
6 6 6 6 6 6 6 6 8 9 9 10 11 11 11 9 10 11 11 11 13 13 13 13 13 13 13 13 14 16 19 22 24 26 28 30 34 37 38 38 38 39 40 40 41
9 9 8 8 9 9 10 10 10 11 11 11 11 12 13 11 11 12 14 15 15 15 14 13 14 15 16 15 16 18 20 22 24 24 25 27 29 31 34 37 39 39 40 42 44
11 12 11 9 10 11 12 11 12 11 10 11 11 11 12 12 12 13 13 13 14 14 14 15 16 16 17 19 20 22 24 27 27 28 29 30 33 34 36 38 39 40 40 41 44
10 12 12 11 10 10 10 9 9 9 9 9 10 10 12 12 12 13 13 14 15 16 18 19 19 21 22 24 26 28 31 33 34 35 35 35 37 36 38 39 41 44 46 47 48
11 11 12 10 11 10 11 10 10 10 9 10 11 10 10 11 14 17 18 16 17 18 20 23 24 25 27 28 30 32 34 35 38 39 40 38 38 38 39 41 42 43 43 44 46
14 11 13 11 11 11 11 11 11 11 10 10 11 11 10 12 16 17 17 18 21 22 26 27 27 28 29 31 32 34 35 35 37 39 40 41 41 42 41 40 41 41 41 42 43
18 14 14 13 13 13 13 13 12 11 11 11 12 13 14 16 18 19 20 22 24 26 27 27 30 32 33 34 34 35 36 33 33 36 36 37 37 37 37 37 36 35 35 37 39
19 17 15 15 16 17 15 15 14 14 14 12 11 12 14 17 17 20 21 23 26 27 28 29 30 29 29 29 28 27 25 26 26 28 29 30 28 29 30 31 31 31 32 33 36
18 18 18 18 19 19 17 17 15 15 15 13 13 15 15 14 17 21 23 26 26 28 29 28 27 22 21 20 20 20 20 20 20 22 25 26 23 24 24 25 28 30 31 33 35
19 21 22 22 22 19 17 18 16 17 17 17 16 15 12 14 20 21 22 24 27 26 26 22 21 20 18 17 18 19 19 21 23 23 22 23 23 22 24 26 26 28 30 32 34
20 20 21 22 20 20 18 18 17 17 19 18 15 14 14 16 20 22 23 26 27 26 22 20 17 17 17 18 19 20 19 20 22 22 22 22 22 21 22 22 25 28 30 30 30
21 19 19 20 19 19 19 18 17 17 19 18 17 14 17 19 20 21 22 25 25 25 19 17 16 17 19 19 17 18 18 20 19 19 19 20 21 21 23 24 25 26 27 28 29
22 20 19 19 18 18 18 18 18 18 19 18 16 18 20 21 21 21 21 22 23 22 22 19 17 17 17 18 18 18 19 21 20 18 18 14 16 21 23 21 22 24 25 29 33
24 23 20 20 19 19 19 18 20 19 21 21 20 20 21 21 20 21 20 20 20 18 19 19 18 18 18 17 18 19 22 22 21 16 14 15 20 22 23 21 22 25 28 34 37
28 25 23 22 20 21 21 20 21 22 22 22 23 22 21 21 20 20 19 18 18 18 18 18 17 16 16 17 19 22 22 23 22 17 13 13 17 23 21 21 25 27 30 32 32
30 29 26 24 24 23 22 23 24 23 23 24 24 24 21 21 20 20 20 18 17 19 18 17 18 18 19 20 21 22 23 22 21 19 15 12 17 20 20 22 23 25 26 28 28
34 33 30 27 26 23 23 22 24 24 24 24 25 23 21 21 19 20 19 17 16 17 18 18 18 21 21 21 23 23 22 22 19 19 19 17 18 19 20 21 24 27 28 29 28
37 35 32 29 31 27 24 24 24 24 25 24 24 23 22 23 20 19 19 17 15 16 17 19 19 18 20 22 23 24 24 21 20 20 19 20 17 19 21 25 28 34 33 31 32
35 35 33 31 30 33 31 28 27 27 26 26 26 25 24 25 23 20 20 18 17 17 19 19 19 19 22 23 24 26 26 24 21 19 18 20 20 23 25 28 31 33 33 33 34
35 35 35 37 35 33 32 30 25 25 27 27 26 28 27 26 26 23 23 20 19 19 20 20 23 24 26 25 23 26 28 24 21 21 19 21 20 25 27 29 30 31 31 33 34
38 38 38 39 34 31 33 33 29 24 24 25 26 29 29 29 28 27 27 24 22 21 21 21 23 25 28 29 25 23 25 25 23 22 22 22 25 28 29 30 33 36 34 34 34
37 38 35 36 35 31 33 34 36 35 30 25 25 29 30 33 31 28 28 27 24 25 25 23 24 25 25 31 27 22 25 24 22 22 23 26 27 32 33 34 36 38 37 34 34
39 38 37 37 38 39 36 35 36 36 34 33 29 27 33 35 32 29 29 27 28 26 28 25 25 26 21 26 29 25 24 22 23 24 27 28 28 30 31 33 35 34 34 36 36
Wind_Direction
323 334 341 344 340 332 322 312 306 304 304 299 288 275 272 271 272 275 276 277 277 276 275 272 267 261 255 250 248 245 242 242 242 247 253 256 256 255 257 260 261 260 260 259 256
299 308 319 324 326 319 310 301 292 292 295 296 295 291 284 278 273 269 264 264 263 268 269 266 261 259 256 253 247 243 243 245 246 249 252 256 258 258 255 256 258 259 258 257 257
311 309 312 313 313 308 296 291 286 286 287 290 292 291 289 281 277 279 280 275 273 276 274 270 270 273 272 266 257 251 249 247 246 246 247 248 251 255 258 256 255 260 262 262 259
330 323 323 320 315 303 285 281 278 279 282 287 289 287 287 290 293 289 290 290 288 289 285 281 281 282 283 278 271 265 261 257 255 253 252 253 254 252 253 255 259 259 262 264 263
329 320 313 306 298 291 282 277 277 279 282 285 289 292 290 288 289 295 294 289 291 291 286 283 284 284 278 272 267 264 263 262 263 262 261 260 259 260 262 262 261 263 265 267 267
328 318 303 295 288 283 282 284 284 282 281 282 284 287 287 289 296 300 300 299 297 296 292 283 274 272 271 270 268 270 268 266 265 264 264 264 263 263 263 264 263 262 263 263 265
321 316 312 306 290 286 286 285 285 282 278 278 280 283 287 297 302 306 305 306 303 301 297 289 281 275 270 270 272 275 276 273 273 274 272 269 268 266 264 265 267 267 266 265 266
318 319 309 302 299 298 294 291 286 281 278 278 281 285 294 299 303 308 305 299 296 294 294 291 287 283 281 279 278 278 276 277 276 276 275 275 276 274 271 270 269 269 271 271 271
297 315 309 300 291 290 290 289 284 283 285 282 281 287 293 297 306 308 306 305 301 298 295 292 290 289 286 282 279 279 280 279 279 278 279 278 277 277 276 276 275 274 274 273 274
283 299 305 298 288 286 286 288 284 284 282 277 278 283 289 304 313 311 308 302 300 300 299 299 298 295 290 289 288 286 285 286 286 285 284 283 282 282 281 280 279 278 277 277 277
280 286 296 293 285 278 281 286 283 278 278 274 279 281 284 304 312 306 304 304 302 301 303 303 300 296 294 292 290 289 289 289 288 286 284 285 285 285 285 284 283 281 277 275 274
280 281 284 292 283 274 275 281 282 280 274 273 280 286 300 309 307 305 310 314 312 308 307 302 298 299 298 298 297 295 297 297 295 292 291 287 286 282 281 279 278 276 274 271 270
288 290 289 291 289 277 273 279 280 278 275 276 285 297 307 306 306 308 313 314 314 313 312 309 309 310 306 306 307 310 311 309 300 296 294 293 291 290 287 285 283 281 279 276 274
286 291 292 288 282 277 269 272 275 274 275 276 291 300 305 308 309 311 316 318 319 318 316 319 319 317 318 319 315 315 314 309 305 304 298 296 295 294 291 291 291 290 288 286 284
289 294 294 289 283 275 271 269 270 275 279 281 290 297 300 307 309 315 320 321 321 320 320 326 325 321 316 318 318 316 316 309 307 306 303 298 297 292 292 292 292 290 292 292 293
289 296 295 288 284 275 270 268 268 269 272 281 290 291 297 303 310 315 317 321 322 320 324 324 328 328 323 325 323 322 319 314 312 305 297 294 296 296 297 298 300 301 302 301 298
288 293 293 288 283 277 272 270 268 268 269 278 284 287 293 300 310 312 316 320 322 323 322 329 337 333 329 328 327 326 326 329 325 314 305 301 302 300 297 297 296 301 300 302 300
286 292 290 285 283 279 273 270 268 267 268 272 280 284 290 298 305 308 315 317 322 317 316 326 334 335 332 330 325 328 328 329 326 316 311 297 304 303 296 292 295 300 302 303 298
281 286 284 281 277 275 276 273 274 270 269 272 275 279 284 292 297 304 311 313 319 318 320 326 331 328 327 326 326 328 327 330 326 312 306 304 303 292 297 294 300 301 304 310 309
277 283 281 276 273 273 273 273 271 272 274 273 273 278 281 285 293 300 310 315 318 316 316 320 321 327 328 326 322 320 322 327 326 319 304 299 312 309 292 288 297 302 308 309 314
274 276 276 273 269 269 272 277 278 276 276 276 274 272 274 280 287 295 304 309 314 313 312 314 318 320 322 324 321 321 322 321 323 320 310 301 305 303 307 304 310 316 317 318 323
273 272 269 267 263 264 271 275 278 278 277 279 274 268 267 272 277 284 292 295 299 301 300 305 308 311 314 320 324 324 323 322 322 319 314 312 310 308 309 315 317 323 323 321 321
268 269 265 263 262 263 268 274 278 278 275 276 272 264 264 268 272 276 281 286 289 293 296 299 300 306 307 312 317 321 321 322 319 317 315 313 317 313 318 322 320 317 321 320 315
262 261 265 267 265 264 266 267 271 276 273 268 263 257 256 264 269 272 273 277 283 286 291 295 297 304 306 308 315 318 316 319 317 316 321 311 311 301 307 308 311 313 315 319 316
261 261 260 264 262 262 264 267 263 268 275 267 258 253 255 256 260 266 272 277 282 285 288 292 296 301 303 307 313 314 310 313 316 313 315 310 308 308 305 310 314 317 318 316 316
257 261 262 254 256 262 262 266 267 268 267 273 266 259 262 261 262 264 273 280 282 288 291 294 297 297 306 306 308 315 310 311 311 310 310 311 311 310 309 310 313 314 315 314 318
259 262 262 260 258 260 263 260 264 267 266 265 269 262 258 262 267 270 270 272 277 281 285 293 293 294 301 299 305 310 308 308 307 309 315 318 312 307 305 308 310 316 318 320 322